Tracking 27112 objects as of 26-Mar-2023
HD Live streaming from Space Station
objects crossing your sky now

FENGYUN 1C DEB

Track FENGYUN 1C DEB now!
10-day predictions


NORAD ID: 30828
Int'l Code: 1999-025AVN
Perigee: 524.3 km
Apogee: 955.4 km
Inclination: 98.4 °
Period: 99.5 minutes
Semi major axis: 7110 km
RCS: 0.0024 m2 (small)
Launch date: May 10, 1999
Source: People's Republic of China (PRC)
Launch site: Taiyaun Space Center, China (TSC)

Note: This is SATELLITE DEBRIS
Your satellite tracking list
Your tracking list is empty




NASA's NSSDC Master Catalog

Two Line Element Set (TLE):
1 30828U 99025AVN 23084.08427178  .00014465  00000-0  21840-2 0  9997
2 30828  98.4114 165.4366 0303179  31.4385  83.3912 14.47840440841463
Source of the keplerian elements: AFSPC